Grayling, MI

2:55 AM EDT on August 23, 2017 (GMT -0400)
Grayling

Weather History for KGOV - February, 2013

Change the Weather History Date:

Thursday, February 7, 2013

  Actual Average (KHTL) Record (KHTL)
Temperature  
Mean Temperature 26 °F -  
Max Temperature 28 °F 26 °F 52 °F (1925)
Min Temperature 23 °F 6 °F -24 °F (1936)
Degree Days  
Heating Degree Days 40    
Moisture  
Dew Point 25 °F    
Average Humidity 95    
Maximum Humidity 100    
Minimum Humidity 86    
Precipitation  
Precipitation 0.00 in - - ()
Sea Level Pressure  
Sea Level Pressure 30.11 in    
Wind  
Wind Speed 6 mph (ESE)    
Max Wind Speed 9 mph    
Max Gust Speed -    
Visibility 4 miles    
Events Snow    
Averages and records for this station are not official NWS values.
T = Trace of Precipitation, MM = Missing Value Source: NWS Daily Summary

Daily Weather History Graph

Daily Weather History Graph

Search for Another Location

Airport or City:

Trip Planner

Search our weather history database for the weather conditions in past years. The results will help you decide how hot, cold, wet, or windy it might be!

Date:

Astronomy

Feb. 07, 2013 Rise Set
Actual Time 7:50 AM EST 5:56 PM EST
Civil Twilight 7:19 AM EST 6:27 PM EST
Nautical Twilight 6:45 AM EST 7:01 PM EST
Astronomical Twilight 6:11 AM EST 7:35 PM EST
Moon 5:32 AM EST (2/7) 3:16 PM EST (2/7)
Length of Visible Light 11h 07m
Length of Day
10h 06m
Waning Crescent, 9% of the Moon is Illuminated
Feb 7
Waning Crescent
Feb 10
New
Feb 17
First Quarter
Feb 25
Full
Mar 4
Last Quarter

Hourly Weather History & Observations

Time (EST) Temp. Windchill Dew Point Humidity Pressure Visibility Wind Dir Wind Speed Gust Speed Precip Events Conditions
2:36 AM 23.0 °F 18.4 °F 21.2 °F 93% 30.16 in 7.0 mi SE 3.5 mph - N/A   Overcast
3:19 AM 23.0 °F - 23.0 °F 100% 30.16 in 5.0 mi Calm Calm - N/A   Overcast
4:59 AM 23.0 °F 17.0 °F 23.0 °F 100% 30.15 in 2.5 mi ESE 4.6 mph - N/A   Overcast
6:36 AM 24.8 °F 19.1 °F 24.8 °F 100% 30.13 in 3.0 mi ESE 4.6 mph - N/A   Overcast
6:56 AM 24.8 °F 19.1 °F 24.8 °F 100% 30.14 in 3.0 mi SE 4.6 mph - N/A   Overcast
7:16 AM 24.8 °F 16.9 °F 24.8 °F 100% 30.14 in 4.0 mi SE 6.9 mph - N/A   Overcast
7:36 AM 24.8 °F 16.9 °F 24.8 °F 100% 30.14 in 3.0 mi ESE 6.9 mph - N/A   Overcast
7:56 AM 24.8 °F 16.9 °F 24.8 °F 100% 30.14 in 2.5 mi ESE 6.9 mph - N/A   Overcast
8:16 AM 24.8 °F 16.9 °F 24.8 °F 100% 30.14 in 1.5 mi ESE 6.9 mph - N/A   Overcast
11:16 AM 26.6 °F 18.2 °F 24.8 °F 93% 30.14 in 4.0 mi SE 8.1 mph - N/A   Overcast
11:37 AM 26.6 °F 18.2 °F 23.0 °F 86% 30.14 in 7.0 mi SE 8.1 mph - N/A   Overcast
11:57 AM 26.6 °F 19.1 °F 23.0 °F 86% 30.13 in 7.0 mi ESE 6.9 mph - N/A   Overcast
12:17 PM 26.6 °F 19.1 °F 23.0 °F 86% 30.12 in 7.0 mi ESE 6.9 mph - N/A   Overcast
12:37 PM 26.6 °F 19.1 °F 23.0 °F 86% 30.11 in 7.0 mi ESE 6.9 mph - N/A   Overcast
12:57 PM 26.6 °F 19.1 °F 24.8 °F 93% 30.09 in 7.0 mi ESE 6.9 mph - N/A   Overcast
1:17 PM 28.4 °F 19.7 °F 26.6 °F 93% 30.09 in 7.0 mi ESE 9.2 mph - N/A   Overcast
1:37 PM 26.6 °F 17.5 °F 24.8 °F 93% 30.09 in 7.0 mi SE 9.2 mph - N/A   Overcast
1:56 PM 28.4 °F 20.4 °F 26.6 °F 93% 30.08 in 7.0 mi ESE 8.1 mph - N/A   Overcast
2:16 PM 28.4 °F 20.4 °F 26.6 °F 93% 30.07 in 5.0 mi ESE 8.1 mph - N/A   Overcast
2:36 PM - - - N/A% - 4.0 mi ESE 6.9 mph - N/A   Overcast
7:36 PM 28.4 °F 20.4 °F 28.4 °F 100% 30.01 in 1.0 mi East 8.1 mph - N/A Snow Snow
8:00 PM 28.4 °F 20.4 °F 28.4 °F 100% 30.00 in 1.0 mi ENE 8.1 mph - N/A Snow Snow
8:16 PM 28.4 °F 21.2 °F 28.4 °F 100% 30.00 in 1.0 mi ENE 6.9 mph - N/A Snow Snow